Hourly Data Report for June 30, 2021

CARIBOU POINT (AUT)
NOVA SCOTIA
Current Station Operator: ECCC - MSC

45°46'00.000" N
62°41'00.000" W
2.40 m
8200774
71415
WBK

Download Data

Hourly Data (June 2021)
Hourly Data Report for June 30, 2021
TIME
LST
Temp Definition
°C
Dew Point Definition
°C
Rel Hum Definition
%
Precip. Amount Definition
mm

Wind Dir Definition
10's deg

Wind Spd Definition
km/h
Visibility Definition
km
Stn Press Definition
kPa
Hmdx Definition


Wind Chill Definition


Weather Definition


00:00 19.3 18.7 96 0.0 20 10   101.38     LegendNANA
01:00 18.8 18.3 97 0.0 19 6   101.33     LegendNANA
02:00 19.1 18.7 98 0.0 20 9   101.31     LegendNANA
03:00 17.9 17.5 98 0.0 20 8   101.28     LegendNANA
04:00 19.0 18.6 98 0.0 21 9   101.27     LegendNANA
05:00 17.8 17.3 97 0.0 18 9   101.26     LegendNANA
06:00 17.3 16.9 97 0.0 16 10   101.23     LegendNANA
07:00 19.9 19.3 97 0.0 20 5   101.21     LegendNANA
08:00 21.4 19.9 91 0.0 22 8   101.18 29   LegendNANA
09:00 21.5 20.1 91 0.0 7 4   101.12 29   LegendNANA
10:00 21.9 20.4 91 0.0 25 3   101.10 30   LegendNANA
11:00 21.0 19.3 90 0.0 20 7   101.05 28   LegendNANA
12:00 20.3 19.3 94 0.0 18 15   101.02 27   LegendNANA
13:00 18.9 17.4 91 0.0 8 3   100.95     LegendNANA
14:00 17.9 17.1 95 0.3 12 20   100.77     LegendNANA
15:00 18.8 17.6 93 0.3 14 9   100.81     LegendNANA
16:00 18.6 17.7 94 0.3 15 7   100.75     LegendNANA
17:00 22.8 20.7 88 0.0 24 7   100.73 31   LegendNANA
18:00 20.1 19.0 94 0.0 29 11   100.74 27   LegendNANA
19:00 20.5 19.4 94 0.0 28 12   100.73 28   LegendNANA
20:00 20.9 19.8 94 0.0 26 5   100.72 28   LegendNANA
21:00 20.8 19.8 94 0.0 22 8   100.74 28   LegendNANA
22:00 21.0 19.9 93 0.0 25 6   100.73 28   LegendNANA
23:00 19.1 18.3 95 0.0 28 7   100.69     LegendNANA

Notes on Data Quality.

Legend

  • E = Estimated
  • M = Missing
  • NA = Not Available*
  • [empty] = Indicates an unobserved value
Date modified: